Time,TemperatureF,DewpointF,PressureIn,WindDirection,WindDirectionDegrees,WindSpeedMPH,WindSpeedGustMPH,Humidity,HourlyPrecipIn,Conditions,Clouds,dailyrainin,SolarRadiationWatts/m^2,SoftwareType,DateUTC
2013-04-27 00:02:00,41.5,32.5,29.90,NNW,337,0.0,0.0,70,0.00,,,0.00,0,WeatherCatV1.15B25,2013-04-26 23:02:00,
2013-04-27 00:07:00,41.4,32.7,29.90,NNW,337,0.0,0.0,71,0.00,,,0.00,0,WeatherCatV1.15B25,2013-04-26 23:07:00,
2013-04-27 00:12:00,41.3,32.6,29.90,NE,52,0.0,1.0,71,0.00,,,0.00,0,WeatherCatV1.15B25,2013-04-26 23:12:00,
2013-04-27 00:17:00,41.2,32.9,29.90,NNW,346,1.0,3.0,72,0.00,,,0.00,0,WeatherCatV1.15B25,2013-04-26 23:17:00,
2013-04-27 00:22:00,41.2,33.2,29.90,NNW,339,0.0,3.0,73,0.00,,,0.00,0,WeatherCatV1.15B25,2013-04-26 23:22:00,
2013-04-27 00:27:00,41.2,33.6,29.90,NNW,340,0.0,1.0,74,0.00,,,0.00,0,WeatherCatV1.15B25,2013-04-26 23:27:00,
2013-04-27 00:32:00,41.2,33.9,29.90,NW,307,0.0,0.0,75,0.00,,,0.00,0,WeatherCatV1.15B25,2013-04-26 23:32:00,
2013-04-27 00:37:00,41.2,34.2,29.90,NW,307,0.0,0.0,76,0.00,,,0.00,0,WeatherCatV1.15B25,2013-04-26 23:37:00,
2013-04-27 00:42:00,41.2,34.2,29.89,NNW,338,1.0,1.0,76,0.00,,,0.00,0,WeatherCatV1.15B25,2013-04-26 23:42:00,
2013-04-27 00:47:00,41.1,34.4,29.89,NNW,331,0.0,1.0,77,0.00,,,0.00,0,WeatherCatV1.15B25,2013-04-26 23:47:00,
2013-04-27 00:52:00,41.1,34.4,29.89,NNW,331,0.0,0.0,77,0.00,,,0.00,0,WeatherCatV1.15B25,2013-04-26 23:52:00,
2013-04-27 01:05:00,41.0,34.7,29.90,NW,319,1.0,1.0,78,0.00,,,0.00,0,WeatherCatV1.15B25,2013-04-27 00:05:00,
2013-04-27 01:10:00,40.9,34.6,29.90,NW,319,0.0,1.0,78,0.00,,,0.00,0,WeatherCatV1.15B25,2013-04-27 00:10:00,
2013-04-27 01:15:00,40.8,34.8,29.89,NNW,329,0.0,1.0,79,0.00,,,0.00,0,WeatherCatV1.15B25,2013-04-27 00:15:00,
2013-04-27 01:20:00,40.8,34.8,29.89,NNW,329,0.0,0.0,79,0.00,,,0.00,0,WeatherCatV1.15B25,2013-04-27 00:20:00,
2013-04-27 01:25:00,40.8,34.8,29.89,NW,319,0.0,5.0,79,0.00,,,0.00,0,WeatherCatV1.15B25,2013-04-27 00:25:00,
2013-04-27 01:30:00,40.7,35.0,29.89,NW,319,0.0,1.0,80,0.00,,,0.00,0,WeatherCatV1.15B25,2013-04-27 00:30:00,
2013-04-27 01:35:00,40.7,35.0,29.89,NNE,15,2.0,3.0,80,0.00,,,0.00,0,WeatherCatV1.15B25,2013-04-27 00:35:00,
2013-04-27 01:40:00,40.7,35.3,29.89,NNW,346,1.0,2.0,81,0.00,,,0.00,0,WeatherCatV1.15B25,2013-04-27 00:40:00,
2013-04-27 01:45:00,40.6,35.2,29.89,NNW,330,2.0,3.0,81,0.00,,,0.00,0,WeatherCatV1.15B25,2013-04-27 00:45:00,
2013-04-27 01:50:00,40.5,35.1,29.89,NW,312,0.0,2.0,81,0.00,,,0.00,0,WeatherCatV1.15B25,2013-04-27 00:50:00,
2013-04-27 01:55:00,40.3,34.9,29.89,NW,312,0.0,1.0,81,0.00,,,0.00,0,WeatherCatV1.15B25,2013-04-27 00:55:00,
2013-04-27 02:00:00,40.1,35.1,29.89,NW,312,0.0,0.0,82,0.00,,,0.00,0,WeatherCatV1.15B25,2013-04-27 01:00:00,
2013-04-27 02:05:00,40.0,35.0,29.88,NW,312,0.0,1.0,82,0.00,,,0.00,0,WeatherCatV1.15B25,2013-04-27 01:05:00,
2013-04-27 02:10:00,39.8,34.8,29.89,NW,320,1.0,1.0,82,0.00,,,0.00,0,WeatherCatV1.15B25,2013-04-27 01:10:00,
2013-04-27 02:15:00,39.7,35.0,29.88,NW,323,0.0,1.0,83,0.00,,,0.00,0,WeatherCatV1.15B25,2013-04-27 01:15:00,
2013-04-27 02:20:00,39.6,34.9,29.88,NW,323,0.0,1.0,83,0.00,,,0.00,0,WeatherCatV1.15B25,2013-04-27 01:20:00,
2013-04-27 02:25:00,39.4,34.7,29.88,NW,323,2.0,3.0,83,0.00,,,0.00,0,WeatherCatV1.15B25,2013-04-27 01:25:00,
2013-04-27 02:30:00,39.2,34.8,29.89,NW,323,1.0,2.0,84,0.00,,,0.00,0,WeatherCatV1.15B25,2013-04-27 01:30:00,
2013-04-27 02:35:00,39.1,34.7,29.89,NW,323,0.0,1.0,84,0.00,,,0.00,0,WeatherCatV1.15B25,2013-04-27 01:35:00,
2013-04-27 02:40:00,38.9,34.5,29.88,NW,323,0.0,0.0,84,0.00,,,0.00,0,WeatherCatV1.15B25,2013-04-27 01:40:00,
2013-04-27 02:45:00,38.8,34.7,29.89,NW,323,0.0,0.0,85,0.00,,,0.00,0,WeatherCatV1.15B25,2013-04-27 01:45:00,
2013-04-27 02:50:00,38.7,34.6,29.89,NW,323,0.0,1.0,85,0.00,,,0.00,0,WeatherCatV1.15B25,2013-04-27 01:50:00,
2013-04-27 02:55:00,38.6,34.5,29.89,NW,323,0.0,0.0,85,0.00,,,0.00,0,WeatherCatV1.15B25,2013-04-27 01:55:00,
2013-04-27 03:00:00,38.4,34.3,29.89,NW,323,0.0,0.0,85,0.00,,,0.00,0,WeatherCatV1.15B25,2013-04-27 02:00:00,
2013-04-27 03:05:00,38.2,34.4,29.89,NW,323,0.0,0.0,86,0.00,,,0.00,0,WeatherCatV1.15B25,2013-04-27 02:05:00,
2013-04-27 03:10:00,38.1,34.3,29.89,NW,323,0.0,0.0,86,0.00,,,0.00,0,WeatherCatV1.15B25,2013-04-27 02:10:00,
2013-04-27 03:15:00,38.0,34.5,29.89,NW,323,0.0,0.0,87,0.00,,,0.00,0,WeatherCatV1.15B25,2013-04-27 02:15:00,
2013-04-27 03:20:00,38.0,34.5,29.89,NW,323,0.0,0.0,87,0.00,,,0.00,0,WeatherCatV1.15B25,2013-04-27 02:20:00,
2013-04-27 03:25:00,37.9,34.4,29.89,NW,323,0.0,0.0,87,0.00,,,0.00,0,WeatherCatV1.15B25,2013-04-27 02:25:00,
2013-04-27 03:30:00,37.9,34.7,29.89,NW,323,0.0,0.0,88,0.00,,,0.00,0,WeatherCatV1.15B25,2013-04-27 02:30:00,
2013-04-27 03:35:00,37.9,34.7,29.89,NW,323,0.0,0.0,88,0.00,,,0.00,0,WeatherCatV1.15B25,2013-04-27 02:35:00,
2013-04-27 03:40:00,37.9,34.7,29.89,NW,323,0.0,0.0,88,0.00,,,0.00,0,WeatherCatV1.15B25,2013-04-27 02:40:00,
2013-04-27 03:45:00,38.0,34.8,29.89,NW,323,0.0,0.0,88,0.00,,,0.00,0,WeatherCatV1.15B25,2013-04-27 02:45:00,
2013-04-27 03:50:00,38.0,35.1,29.89,NW,323,0.0,0.0,89,0.00,,,0.00,0,WeatherCatV1.15B25,2013-04-27 02:50:00,
2013-04-27 03:55:00,37.9,35.0,29.89,NW,323,0.0,0.0,89,0.00,,,0.00,0,WeatherCatV1.15B25,2013-04-27 02:55:00,
2013-04-27 04:00:00,37.9,35.0,29.88,NW,323,0.0,0.0,89,0.00,,,0.00,0,WeatherCatV1.15B25,2013-04-27 03:00:00,
2013-04-27 04:05:00,37.8,34.9,29.88,NW,323,0.0,0.0,89,0.00,,,0.00,0,WeatherCatV1.15B25,2013-04-27 03:05:00,
2013-04-27 04:10:00,37.7,34.8,29.89,NW,323,0.0,0.0,89,0.00,,,0.00,0,WeatherCatV1.15B25,2013-04-27 03:10:00,
2013-04-27 04:15:00,37.7,35.0,29.89,NW,323,0.0,2.0,90,0.00,,,0.00,0,WeatherCatV1.15B25,2013-04-27 03:15:00,
2013-04-27 04:20:00,37.7,35.0,29.89,NW,323,0.0,0.0,90,0.00,,,0.00,0,WeatherCatV1.15B25,2013-04-27 03:20:00,
2013-04-27 04:25:00,37.8,35.1,29.88,NW,323,0.0,0.0,90,0.00,,,0.00,0,WeatherCatV1.15B25,2013-04-27 03:25:00,
2013-04-27 04:30:00,37.9,35.2,29.88,NW,323,1.0,1.0,90,0.00,,,0.00,0,WeatherCatV1.15B25,2013-04-27 03:30:00,
2013-04-27 04:35:00,38.0,35.3,29.88,NW,325,0.0,1.0,90,0.00,,,0.00,0,WeatherCatV1.15B25,2013-04-27 03:35:00,
2013-04-27 04:40:00,38.1,35.4,29.88,NW,325,0.0,0.0,90,0.00,,,0.00,0,WeatherCatV1.15B25,2013-04-27 03:40:00,
2013-04-27 04:45:00,38.2,35.5,29.88,NW,307,0.0,0.0,90,0.00,,,0.00,0,WeatherCatV1.15B25,2013-04-27 03:45:00,
2013-04-27 04:50:00,38.3,35.6,29.89,NW,315,0.0,4.0,90,0.00,,,0.00,0,WeatherCatV1.15B25,2013-04-27 03:50:00,
2013-04-27 04:55:00,38.3,35.6,29.89,NNE,31,0.0,1.0,90,0.00,,,0.00,0,WeatherCatV1.15B25,2013-04-27 03:55:00,
2013-04-27 05:00:00,38.4,35.7,29.89,NW,309,0.0,1.0,90,0.00,,,0.00,0,WeatherCatV1.15B25,2013-04-27 04:00:00,
2013-04-27 05:01:00,38.4,35.7,29.89,NW,309,0.0,1.0,90,0.00,,,0.00,0,WeatherCatV1.15B25,2013-04-27 04:01:00,
2013-04-27 05:06:00,38.5,35.8,29.89,North,0,0.0,1.0,90,0.00,,,0.00,0,WeatherCatV1.15B25,2013-04-27 04:06:00,
2013-04-27 05:11:00,38.5,35.8,29.89,NNW,337,0.0,2.0,90,0.00,,,0.00,0,WeatherCatV1.15B25,2013-04-27 04:11:00,
2013-04-27 05:16:00,38.6,35.9,29.89,NNW,335,0.0,1.0,90,0.00,,,0.00,0,WeatherCatV1.15B25,2013-04-27 04:16:00,
2013-04-27 05:21:00,38.7,36.0,29.89,WNW,290,0.0,2.0,90,0.00,,,0.00,0,WeatherCatV1.15B25,2013-04-27 04:21:00,
2013-04-27 05:26:00,38.7,36.0,29.89,NW,325,0.0,4.0,90,0.00,,,0.00,0,WeatherCatV1.15B25,2013-04-27 04:26:00,
2013-04-27 05:31:00,38.8,36.1,29.89,NW,322,0.0,1.0,90,0.00,,,0.00,0,WeatherCatV1.15B25,2013-04-27 04:31:00,
2013-04-27 05:33:00,38.8,36.1,29.89,NW,322,0.0,0.0,90,0.00,,,0.00,0,WeatherCatV1.15B25,2013-04-27 04:33:00,
2013-04-27 05:37:00,38.7,36.0,29.89,NW,322,0.0,0.0,90,0.00,,,0.00,0,WeatherCatV1.15B25,2013-04-27 04:37:00,
2013-04-27 05:42:00,38.7,36.0,29.89,East,84,0.0,1.0,90,0.00,,,0.00,0,WeatherCatV1.15B25,2013-04-27 04:42:00,
2013-04-27 05:47:00,38.6,35.9,29.89,NNW,336,0.0,1.0,90,0.00,,,0.00,5,WeatherCatV1.15B25,2013-04-27 04:47:00,
2013-04-27 05:52:00,38.6,35.9,29.89,NNW,336,0.0,0.0,90,0.00,,,0.00,7,WeatherCatV1.15B25,2013-04-27 04:52:00,
2013-04-27 05:58:00,38.6,35.9,29.90,ESE,121,1.0,1.0,90,0.00,,,0.00,9,WeatherCatV1.15B25,2013-04-27 04:58:00,
2013-04-27 06:03:00,38.6,35.9,29.90,ESE,121,0.0,1.0,90,0.00,,,0.00,11,WeatherCatV1.15B25,2013-04-27 05:03:00,
2013-04-27 06:08:00,38.6,35.9,29.90,SSE,157,1.0,1.0,90,0.00,,,0.00,14,WeatherCatV1.15B25,2013-04-27 05:08:00,
2013-04-27 06:13:00,38.6,36.2,29.90,SSW,203,0.0,0.0,91,0.00,,,0.00,18,WeatherCatV1.15B25,2013-04-27 05:13:00,
2013-04-27 06:18:00,38.7,36.3,29.90,SSW,203,0.0,1.0,91,0.00,,,0.00,19,WeatherCatV1.15B25,2013-04-27 05:18:00,
2013-04-27 06:23:00,38.8,36.4,29.90,SSW,203,0.0,1.0,91,0.00,,,0.00,23,WeatherCatV1.15B25,2013-04-27 05:23:00,
2013-04-27 06:28:00,39.0,36.6,29.90,SSW,202,0.0,1.0,91,0.00,,,0.00,23,WeatherCatV1.15B25,2013-04-27 05:28:00,
2013-04-27 06:33:00,39.2,36.8,29.90,NNW,332,0.0,3.0,91,0.00,,,0.00,26,WeatherCatV1.15B25,2013-04-27 05:33:00,
2013-04-27 06:38:00,39.5,37.1,29.90,NNW,332,0.0,1.0,91,0.00,,,0.00,32,WeatherCatV1.15B25,2013-04-27 05:38:00,
2013-04-27 06:43:00,39.6,36.9,29.90,NNE,31,0.0,1.0,90,0.00,,,0.00,35,WeatherCatV1.15B25,2013-04-27 05:43:00,
2013-04-27 06:48:00,39.8,37.1,29.91,NNW,338,0.0,2.0,90,0.00,,,0.00,40,WeatherCatV1.15B25,2013-04-27 05:48:00,
2013-04-27 06:53:00,39.9,36.9,29.91,West,262,0.0,1.0,89,0.00,,,0.00,53,WeatherCatV1.15B25,2013-04-27 05:53:00,
2013-04-27 06:58:00,40.1,37.1,29.91,NW,322,0.0,1.0,89,0.00,,,0.00,58,WeatherCatV1.15B25,2013-04-27 05:58:00,
2013-04-27 07:03:00,40.2,37.2,29.91,ENE,57,0.0,0.0,89,0.00,,,0.00,72,WeatherCatV1.15B25,2013-04-27 06:03:00,
2013-04-27 07:08:00,40.4,37.1,29.91,NW,317,0.0,4.0,88,0.00,,,0.00,74,WeatherCatV1.15B25,2013-04-27 06:08:00,
2013-04-27 07:13:00,40.5,37.2,29.91,NW,317,0.0,1.0,88,0.00,,,0.00,86,WeatherCatV1.15B25,2013-04-27 06:13:00,
2013-04-27 07:18:00,40.6,37.0,29.91,South,186,0.0,1.0,87,0.00,,,0.00,105,WeatherCatV1.15B25,2013-04-27 06:18:00,
2013-04-27 07:20:00,40.6,37.0,29.92,SSW,203,0.0,3.0,87,0.00,,,0.00,100,WeatherCatV1.15B25,2013-04-27 06:20:00,
2013-04-27 07:25:00,40.6,36.7,29.92,SSE,168,0.0,5.0,86,0.00,,,0.00,98,WeatherCatV1.15B25,2013-04-27 06:25:00,
2013-04-27 07:30:00,40.4,36.5,29.92,NNW,332,0.0,2.0,86,0.00,,,0.00,102,WeatherCatV1.15B25,2013-04-27 06:30:00,
2013-04-27 07:35:00,40.2,36.1,29.92,WNW,300,1.0,2.0,85,0.00,,,0.00,72,WeatherCatV1.15B25,2013-04-27 06:35:00,
2013-04-27 07:40:00,40.2,36.1,29.92,WNW,295,2.0,2.0,85,0.00,,,0.00,118,WeatherCatV1.15B25,2013-04-27 06:40:00,
2013-04-27 07:45:00,40.2,36.1,29.92,SW,217,2.0,3.0,85,0.00,,,0.00,137,WeatherCatV1.15B25,2013-04-27 06:45:00,
2013-04-27 07:50:00,40.6,36.5,29.92,SSE,148,0.0,2.0,85,0.00,,,0.00,304,WeatherCatV1.15B25,2013-04-27 06:50:00,
2013-04-27 07:55:00,41.0,36.5,29.92,NNW,338,1.0,2.0,84,0.00,,,0.00,156,WeatherCatV1.15B25,2013-04-27 06:55:00,
2013-04-27 08:00:00,41.0,36.5,29.93,WSW,239,1.0,6.0,84,0.00,,,0.00,120,WeatherCatV1.15B25,2013-04-27 07:00:00,
2013-04-27 08:05:00,40.9,36.1,29.93,SSE,159,2.0,4.0,83,0.00,,,0.00,121,WeatherCatV1.15B25,2013-04-27 07:05:00,
2013-04-27 08:10:00,40.9,36.4,29.93,SSE,150,1.0,1.0,84,0.00,,,0.00,174,WeatherCatV1.15B25,2013-04-27 07:10:00,
2013-04-27 08:15:00,41.3,36.8,29.93,SSW,199,1.0,2.0,84,0.00,,,0.00,174,WeatherCatV1.15B25,2013-04-27 07:15:00,
2013-04-27 08:20:00,41.2,36.7,29.93,South,189,1.0,2.0,84,0.00,,,0.00,121,WeatherCatV1.15B25,2013-04-27 07:20:00,
2013-04-27 08:25:00,41.2,36.7,29.93,SE,137,0.0,2.0,84,0.00,,,0.00,459,WeatherCatV1.15B25,2013-04-27 07:25:00,
2013-04-27 08:30:00,41.8,37.0,29.93,SSE,150,0.0,5.0,83,0.00,,,0.00,543,WeatherCatV1.15B25,2013-04-27 07:30:00,
2013-04-27 08:35:00,42.2,37.4,29.93,WNW,302,1.0,3.0,83,0.00,,,0.00,260,WeatherCatV1.15B25,2013-04-27 07:35:00,
2013-04-27 08:40:00,42.5,37.4,29.93,WNW,294,1.0,3.0,82,0.00,,,0.00,670,WeatherCatV1.15B25,2013-04-27 07:40:00,
2013-04-27 08:45:00,42.7,37.6,29.93,NW,322,0.0,1.0,82,0.00,,,0.00,360,WeatherCatV1.15B25,2013-04-27 07:45:00,
2013-04-27 08:50:00,42.4,37.0,29.93,SSW,192,0.0,1.0,81,0.00,,,0.00,285,WeatherCatV1.15B25,2013-04-27 07:50:00,
2013-04-27 08:55:00,42.2,37.1,29.94,SSE,157,1.0,3.0,82,0.00,,,0.00,274,WeatherCatV1.15B25,2013-04-27 07:55:00,
2013-04-27 09:00:00,42.1,37.0,29.94,SE,134,0.0,3.0,82,0.00,,,0.00,302,WeatherCatV1.15B25,2013-04-27 08:00:00,
2013-04-27 09:05:00,42.0,36.9,29.94,SE,132,2.0,2.0,82,0.00,,,0.00,295,WeatherCatV1.15B25,2013-04-27 08:05:00,
2013-04-27 09:10:00,42.3,37.2,29.94,SE,135,4.0,5.0,82,0.00,,,0.00,376,WeatherCatV1.15B25,2013-04-27 08:10:00,
2013-04-27 09:15:00,42.4,37.3,29.94,East,82,2.0,2.0,82,0.00,,,0.00,341,WeatherCatV1.15B25,2013-04-27 08:15:00,
2013-04-27 09:20:00,42.5,37.1,29.94,NW,319,1.0,4.0,81,0.00,,,0.00,390,WeatherCatV1.15B25,2013-04-27 08:20:00,
2013-04-27 09:25:00,42.8,37.4,29.94,SSE,165,1.0,2.0,81,0.00,,,0.00,795,WeatherCatV1.15B25,2013-04-27 08:25:00,
2013-04-27 09:30:00,43.5,37.7,29.94,South,172,0.0,4.0,80,0.00,,,0.00,745,WeatherCatV1.15B25,2013-04-27 08:30:00,
2013-04-27 09:35:00,44.0,37.6,29.94,NNW,343,0.0,3.0,78,0.00,,,0.00,856,WeatherCatV1.15B25,2013-04-27 08:35:00,
2013-04-27 09:40:00,43.9,37.2,29.94,West,265,2.0,5.0,77,0.00,,,0.00,253,WeatherCatV1.15B25,2013-04-27 08:40:00,
2013-04-27 09:45:00,43.6,37.2,29.94,SSW,204,1.0,1.0,78,0.00,,,0.00,311,WeatherCatV1.15B25,2013-04-27 08:45:00,
2013-04-27 09:50:00,43.7,37.0,29.95,SW,218,0.0,3.0,77,0.00,,,0.00,264,WeatherCatV1.15B25,2013-04-27 08:50:00,
2013-04-27 09:55:00,43.6,36.9,29.94,South,180,0.0,1.0,77,0.00,,,0.00,225,WeatherCatV1.15B25,2013-04-27 08:55:00,
2013-04-27 10:00:00,43.7,37.0,29.95,WSW,246,0.0,1.0,77,0.00,,,0.00,127,WeatherCatV1.15B25,2013-04-27 09:00:00,
2013-04-27 10:05:00,43.6,36.9,29.95,North,11,2.0,4.0,77,0.00,,,0.00,100,WeatherCatV1.15B25,2013-04-27 09:05:00,
2013-04-27 10:10:00,43.2,36.8,29.95,NW,304,2.0,2.0,78,0.00,,,0.00,220,WeatherCatV1.15B25,2013-04-27 09:10:00,
2013-04-27 10:15:00,43.3,37.6,29.95,WNW,302,1.0,1.0,80,0.00,,,0.00,879,WeatherCatV1.15B25,2013-04-27 09:15:00,
2013-04-27 10:20:00,44.1,38.3,29.95,SSE,150,2.0,2.0,80,0.00,,,0.00,281,WeatherCatV1.15B25,2013-04-27 09:20:00,
2013-04-27 10:25:00,44.4,37.6,29.95,SE,135,0.0,3.0,77,0.00,,,0.00,336,WeatherCatV1.15B25,2013-04-27 09:25:00,
2013-04-27 10:30:00,44.3,37.6,29.95,NW,315,3.0,5.0,77,0.00,,,0.00,243,WeatherCatV1.15B25,2013-04-27 09:30:00,
2013-04-27 10:35:00,44.1,37.0,29.95,WSW,252,1.0,2.0,76,0.00,,,0.00,308,WeatherCatV1.15B25,2013-04-27 09:35:00,
2013-04-27 10:40:00,44.0,37.6,29.95,WNW,299,0.0,2.0,78,0.00,,,0.00,243,WeatherCatV1.15B25,2013-04-27 09:40:00,
2013-04-27 10:45:00,44.3,37.6,29.95,WNW,302,0.0,1.0,77,0.00,,,0.00,338,WeatherCatV1.15B25,2013-04-27 09:45:00,
2013-04-27 10:50:00,44.4,37.0,29.96,South,171,0.0,2.0,75,0.00,,,0.00,214,WeatherCatV1.15B25,2013-04-27 09:50:00,
2013-04-27 10:55:00,44.6,37.2,29.96,East,93,0.0,3.0,75,0.00,,,0.00,260,WeatherCatV1.15B25,2013-04-27 09:55:00,
2013-04-27 11:00:00,44.7,36.9,29.96,SSE,158,0.0,2.0,74,0.00,,,0.00,230,WeatherCatV1.15B25,2013-04-27 10:00:00,
2013-04-27 11:05:00,44.8,36.7,29.96,NW,304,0.0,1.0,73,0.00,,,0.00,114,WeatherCatV1.15B25,2013-04-27 10:05:00,
2013-04-27 11:10:00,44.6,36.5,29.97,SE,140,0.0,4.0,73,0.00,,,0.00,72,WeatherCatV1.15B25,2013-04-27 10:10:00,
2013-04-27 11:15:00,44.3,36.9,29.97,SSE,155,0.0,2.0,75,0.00,,,0.00,149,WeatherCatV1.15B25,2013-04-27 10:15:00,
2013-04-27 11:20:00,44.0,36.9,29.97,West,274,1.0,3.0,76,0.00,,,0.00,171,WeatherCatV1.15B25,2013-04-27 10:20:00,
2013-04-27 11:25:00,43.6,36.5,29.97,SSE,167,1.0,1.0,76,0.00,,,0.00,163,WeatherCatV1.15B25,2013-04-27 10:25:00,
2013-04-27 11:30:00,43.8,37.1,29.97,NW,313,0.0,2.0,77,0.00,,,0.00,425,WeatherCatV1.15B25,2013-04-27 10:30:00,
2013-04-27 11:35:00,44.6,37.2,29.97,SE,132,1.0,2.0,75,0.00,,,0.00,454,WeatherCatV1.15B25,2013-04-27 10:35:00,
2013-04-27 11:40:00,45.2,37.1,29.97,SSE,159,0.0,2.0,73,0.00,,,0.00,371,WeatherCatV1.15B25,2013-04-27 10:40:00,
2013-04-27 11:45:00,45.8,36.9,29.97,SSE,160,0.0,3.0,71,0.00,,,0.00,555,WeatherCatV1.15B25,2013-04-27 10:45:00,
2013-04-27 11:50:00,45.9,37.0,29.97,SW,216,0.0,2.0,71,0.00,,,0.00,149,WeatherCatV1.15B25,2013-04-27 10:50:00,
2013-04-27 11:55:00,45.1,37.7,29.97,WSW,246,0.0,2.0,75,0.00,,,0.00,330,WeatherCatV1.15B25,2013-04-27 10:55:00,
2013-04-27 12:00:00,44.5,38.4,29.97,ESE,123,0.0,1.0,79,0.00,,,0.00,462,WeatherCatV1.15B25,2013-04-27 11:00:00,
2013-04-27 12:05:00,45.0,39.5,29.97,South,174,0.0,2.0,81,0.00,,,0.00,462,WeatherCatV1.15B25,2013-04-27 11:05:00,
2013-04-27 12:10:00,46.1,39.6,29.97,NW,325,0.0,3.0,78,0.00,,,0.00,965,WeatherCatV1.15B25,2013-04-27 11:10:00,
2013-04-27 12:15:00,46.3,38.8,29.97,NNW,348,0.0,1.0,75,0.00,,,0.00,533,WeatherCatV1.15B25,2013-04-27 11:15:00,
2013-04-27 12:20:00,46.4,38.9,29.97,NE,38,1.0,2.0,75,0.00,,,0.00,188,WeatherCatV1.15B25,2013-04-27 11:20:00,
2013-04-27 12:25:00,46.0,39.2,29.97,West,275,1.0,4.0,77,0.00,,,0.00,153,WeatherCatV1.15B25,2013-04-27 11:25:00,
2013-04-27 12:30:00,45.1,38.7,29.97,NW,325,0.0,2.0,78,0.00,,,0.00,186,WeatherCatV1.15B25,2013-04-27 11:30:00,
2013-04-27 12:35:00,44.6,38.5,29.97,SSE,153,0.0,1.0,79,0.00,,,0.00,181,WeatherCatV1.15B25,2013-04-27 11:35:00,
2013-04-27 12:40:00,44.6,38.8,29.97,SSE,153,0.0,0.0,80,0.00,,,0.00,387,WeatherCatV1.15B25,2013-04-27 11:40:00,
2013-04-27 12:45:00,45.2,38.4,29.97,SE,134,5.0,5.0,77,0.00,,,0.00,371,WeatherCatV1.15B25,2013-04-27 11:45:00,
2013-04-27 12:50:00,46.0,37.8,29.97,SSW,196,1.0,2.0,73,0.00,,,0.00,371,WeatherCatV1.15B25,2013-04-27 11:50:00,
2013-04-27 12:55:00,46.4,38.2,29.97,SSW,199,1.0,2.0,73,0.00,,,0.00,420,WeatherCatV1.15B25,2013-04-27 11:55:00,
2013-04-27 12:57:00,46.6,38.1,29.97,SSW,193,0.0,2.0,72,0.00,,,0.00,385,WeatherCatV1.15B25,2013-04-27 11:57:00,
2013-04-27 13:02:00,46.7,37.8,29.97,SE,134,0.0,4.0,71,0.00,,,0.00,230,WeatherCatV1.15B25,2013-04-27 12:02:00,
2013-04-27 13:07:00,46.3,37.8,29.97,SE,131,0.0,5.0,72,0.00,,,0.00,258,WeatherCatV1.15B25,2013-04-27 12:07:00,
2013-04-27 13:12:00,46.9,38.4,29.98,SE,136,0.0,3.0,72,0.00,,,0.00,408,WeatherCatV1.15B25,2013-04-27 12:12:00,
2013-04-27 13:17:00,47.2,38.6,29.97,South,191,0.0,2.0,72,0.00,,,0.00,506,WeatherCatV1.15B25,2013-04-27 12:17:00,
2013-04-27 13:22:00,47.9,38.6,29.97,SE,126,1.0,5.0,70,0.00,,,0.00,1078,WeatherCatV1.15B25,2013-04-27 12:22:00,
2013-04-27 13:27:00,49.6,39.9,29.97,SE,145,0.0,8.0,69,0.00,,,0.00,1144,WeatherCatV1.15B25,2013-04-27 12:27:00,
2013-04-27 13:32:00,49.2,39.1,29.97,SE,142,0.0,1.0,68,0.00,,,0.00,178,WeatherCatV1.15B25,2013-04-27 12:32:00,
2013-04-27 13:37:00,49.0,38.5,29.97,ESE,104,0.0,3.0,67,0.00,,,0.00,255,WeatherCatV1.15B25,2013-04-27 12:37:00,
2013-04-27 13:42:00,48.1,38.8,29.97,SSW,193,2.0,6.0,70,0.00,,,0.00,355,WeatherCatV1.15B25,2013-04-27 12:42:00,
2013-04-27 13:47:00,48.3,39.3,29.97,South,190,1.0,5.0,71,0.00,,,0.00,367,WeatherCatV1.15B25,2013-04-27 12:47:00,
2013-04-27 13:52:00,48.0,39.1,29.97,NNW,343,0.0,7.0,71,0.00,,,0.00,359,WeatherCatV1.15B25,2013-04-27 12:52:00,
2013-04-27 13:57:00,47.6,39.0,29.97,WSW,258,0.0,3.0,72,0.00,,,0.00,408,WeatherCatV1.15B25,2013-04-27 12:57:00,
2013-04-27 14:02:00,48.0,39.4,29.97,South,183,0.0,4.0,72,0.00,,,0.00,677,WeatherCatV1.15B25,2013-04-27 13:02:00,
2013-04-27 14:07:00,47.9,38.6,29.97,SSW,211,1.0,2.0,70,0.00,,,0.00,181,WeatherCatV1.15B25,2013-04-27 13:07:00,
2013-04-27 14:12:00,47.0,38.1,29.98,West,275,1.0,2.0,71,0.00,,,0.00,963,WeatherCatV1.15B25,2013-04-27 13:12:00,
2013-04-27 14:17:00,48.0,38.7,29.97,North,0,0.0,3.0,70,0.00,,,0.00,350,WeatherCatV1.15B25,2013-04-27 13:17:00,
2013-04-27 14:22:00,48.7,38.2,29.97,WSW,252,1.0,4.0,67,0.00,,,0.00,1104,WeatherCatV1.15B25,2013-04-27 13:22:00,
2013-04-27 14:27:00,49.5,39.4,29.97,SE,142,1.0,4.0,68,0.00,,,0.00,348,WeatherCatV1.15B25,2013-04-27 13:27:00,
2013-04-27 14:32:00,49.6,39.1,29.98,South,188,1.0,4.0,67,0.00,,,0.00,123,WeatherCatV1.15B25,2013-04-27 13:32:00,
2013-04-27 14:37:00,48.2,38.5,29.98,SSE,148,2.0,3.0,69,0.00,,,0.00,197,WeatherCatV1.15B25,2013-04-27 13:37:00,
2013-04-27 14:42:00,47.7,39.1,29.97,West,281,1.0,3.0,72,0.00,,,0.00,916,WeatherCatV1.15B25,2013-04-27 13:42:00,
2013-04-27 14:48:00,49.0,39.6,29.97,ESE,117,0.0,2.0,70,0.00,,,0.00,835,WeatherCatV1.15B25,2013-04-27 13:48:00,
2013-04-27 14:53:00,50.1,39.6,29.97,SSW,207,1.0,3.0,67,0.00,,,0.00,752,WeatherCatV1.15B25,2013-04-27 13:53:00,
2013-04-27 14:58:00,50.0,39.1,29.97,West,261,1.0,3.0,66,0.00,,,0.00,860,WeatherCatV1.15B25,2013-04-27 13:58:00,
2013-04-27 15:03:00,50.5,38.4,29.97,NW,322,3.0,7.0,63,0.00,,,0.00,761,WeatherCatV1.15B25,2013-04-27 14:03:00,
2013-04-27 15:08:00,50.6,39.7,29.97,West,270,2.0,4.0,66,0.00,,,0.00,956,WeatherCatV1.15B25,2013-04-27 14:08:00,
2013-04-27 15:13:00,49.2,37.9,29.97,SE,124,2.0,4.0,65,0.00,,,0.00,121,WeatherCatV1.15B25,2013-04-27 14:13:00,
2013-04-27 15:18:00,48.7,37.5,29.98,South,188,0.0,4.0,65,0.00,,,0.00,744,WeatherCatV1.15B25,2013-04-27 14:18:00,
2013-04-27 15:23:00,49.8,37.7,29.97,SSE,168,0.0,6.0,63,0.00,,,0.00,721,WeatherCatV1.15B25,2013-04-27 14:23:00,
2013-04-27 15:28:00,49.4,36.1,29.97,WNW,285,2.0,6.0,60,0.00,,,0.00,703,WeatherCatV1.15B25,2013-04-27 14:28:00,
2013-04-27 15:33:00,49.8,36.9,29.97,NW,315,0.0,4.0,61,0.00,,,0.00,698,WeatherCatV1.15B25,2013-04-27 14:33:00,
2013-04-27 15:38:00,50.9,37.5,29.97,SE,140,1.0,4.0,60,0.00,,,0.00,735,WeatherCatV1.15B25,2013-04-27 14:38:00,
2013-04-27 15:43:00,51.1,38.1,29.97,NW,313,0.0,4.0,61,0.00,,,0.00,752,WeatherCatV1.15B25,2013-04-27 14:43:00,
2013-04-27 15:48:00,51.0,38.0,29.97,ESE,121,0.0,3.0,61,0.00,,,0.00,728,WeatherCatV1.15B25,2013-04-27 14:48:00,
2013-04-27 15:53:00,51.7,38.3,29.97,East,98,1.0,3.0,60,0.00,,,0.00,835,WeatherCatV1.15B25,2013-04-27 14:53:00,
2013-04-27 15:58:00,51.1,38.1,29.97,West,259,1.0,4.0,61,0.00,,,0.00,243,WeatherCatV1.15B25,2013-04-27 14:58:00,
2013-04-27 16:03:00,51.2,38.6,29.97,NNE,26,1.0,5.0,62,0.00,,,0.00,805,WeatherCatV1.15B25,2013-04-27 15:03:00,
2013-04-27 16:08:00,50.7,36.9,29.97,East,88,1.0,6.0,59,0.00,,,0.00,151,WeatherCatV1.15B25,2013-04-27 15:08:00,
2013-04-27 16:13:00,51.2,37.8,29.97,North,350,0.0,3.0,60,0.00,,,0.00,824,WeatherCatV1.15B25,2013-04-27 15:13:00,
2013-04-27 16:18:00,50.1,36.8,29.98,SE,136,0.0,3.0,60,0.00,,,0.00,100,WeatherCatV1.15B25,2013-04-27 15:18:00,
2013-04-27 16:23:00,49.7,37.2,29.98,SSW,211,0.0,4.0,62,0.00,,,0.00,664,WeatherCatV1.15B25,2013-04-27 15:23:00,
2013-04-27 16:28:00,50.9,36.7,29.97,SSE,159,1.0,5.0,58,0.00,,,0.00,592,WeatherCatV1.15B25,2013-04-27 15:28:00,
2013-04-27 16:33:00,51.4,37.6,29.97,SE,132,2.0,5.0,59,0.00,,,0.00,563,WeatherCatV1.15B25,2013-04-27 15:33:00,
2013-04-27 16:38:00,51.4,36.7,29.98,ESE,122,2.0,8.0,57,0.00,,,0.00,578,WeatherCatV1.15B25,2013-04-27 15:38:00,
2013-04-27 16:43:00,51.3,36.6,29.98,SE,140,1.0,4.0,57,0.00,,,0.00,661,WeatherCatV1.15B25,2013-04-27 15:43:00,
2013-04-27 16:48:00,51.4,36.7,29.98,SE,131,10.0,10.0,57,0.00,,,0.00,102,WeatherCatV1.15B25,2013-04-27 15:48:00,
2013-04-27 16:53:00,49.9,35.7,29.98,WNW,283,2.0,3.0,58,0.00,,,0.00,545,WeatherCatV1.15B25,2013-04-27 15:53:00,
2013-04-27 16:58:00,49.8,35.6,29.98,SE,142,1.0,8.0,58,0.00,,,0.00,519,WeatherCatV1.15B25,2013-04-27 15:58:00,
2013-04-27 17:03:00,51.0,36.7,29.98,SSE,160,0.0,2.0,58,0.00,,,0.00,515,WeatherCatV1.15B25,2013-04-27 16:03:00,
2013-04-27 17:08:00,51.5,36.3,29.98,SE,138,2.0,2.0,56,0.00,,,0.00,508,WeatherCatV1.15B25,2013-04-27 16:08:00,
2013-04-27 17:13:00,51.3,34.8,29.99,SSE,156,1.0,2.0,53,0.00,,,0.00,510,WeatherCatV1.15B25,2013-04-27 16:13:00,
2013-04-27 17:18:00,50.5,34.9,29.99,SE,144,3.0,3.0,55,0.00,,,0.00,512,WeatherCatV1.15B25,2013-04-27 16:18:00,
2013-04-27 17:23:00,50.9,35.3,29.99,ESE,119,10.0,10.0,55,0.00,,,0.00,566,WeatherCatV1.15B25,2013-04-27 16:23:00,
2013-04-27 17:28:00,51.5,36.8,29.99,SE,134,5.0,9.0,57,0.00,,,0.00,135,WeatherCatV1.15B25,2013-04-27 16:28:00,
2013-04-27 17:33:00,50.3,37.0,29.99,SE,144,0.0,5.0,60,0.00,,,0.00,83,WeatherCatV1.15B25,2013-04-27 16:33:00,
2013-04-27 17:38:00,50.0,37.1,30.00,SE,134,3.0,5.0,61,0.00,,,0.00,83,WeatherCatV1.15B25,2013-04-27 16:38:00,
2013-04-27 17:43:00,49.6,37.1,30.00,SE,136,1.0,4.0,62,0.00,,,0.00,90,WeatherCatV1.15B25,2013-04-27 16:43:00,
2013-04-27 17:48:00,49.4,37.7,30.00,SE,134,0.0,2.0,64,0.00,,,0.00,186,WeatherCatV1.15B25,2013-04-27 16:48:00,
2013-04-27 17:53:00,49.7,37.6,30.00,SE,128,2.0,4.0,63,0.00,,,0.00,309,WeatherCatV1.15B25,2013-04-27 16:53:00,
2013-04-27 17:58:00,50.4,37.9,30.00,ESE,110,4.0,5.0,62,0.00,,,0.00,202,WeatherCatV1.15B25,2013-04-27 16:58:00,
2013-04-27 18:03:00,49.5,38.2,30.01,SE,136,0.0,4.0,65,0.00,,,0.00,72,WeatherCatV1.15B25,2013-04-27 17:03:00,
2013-04-27 18:08:00,47.9,39.0,30.01,SE,130,4.0,8.0,71,0.00,,,0.01,81,WeatherCatV1.15B25,2013-04-27 17:08:00,
2013-04-27 18:13:00,47.1,39.9,30.01,SE,132,0.0,1.0,76,0.00,,,0.01,93,WeatherCatV1.15B25,2013-04-27 17:13:00,
2013-04-27 18:18:00,46.7,40.2,30.01,SE,132,3.0,3.0,78,0.00,,,0.01,70,WeatherCatV1.15B25,2013-04-27 17:18:00,
2013-04-27 18:23:00,46.6,39.4,30.01,SE,136,2.0,4.0,76,0.00,,,0.01,42,WeatherCatV1.15B25,2013-04-27 17:23:00,
2013-04-27 18:28:00,46.6,39.1,30.02,SSE,152,2.0,2.0,75,0.00,,,0.01,39,WeatherCatV1.15B25,2013-04-27 17:28:00,
2013-04-27 18:33:00,46.6,39.1,30.02,West,268,0.0,2.0,75,0.00,,,0.01,39,WeatherCatV1.15B25,2013-04-27 17:33:00,
2013-04-27 18:38:00,46.5,39.0,30.02,WNW,301,0.0,1.0,75,0.00,,,0.01,42,WeatherCatV1.15B25,2013-04-27 17:38:00,
2013-04-27 18:43:00,46.5,39.0,30.02,WNW,300,0.0,1.0,75,0.00,,,0.01,40,WeatherCatV1.15B25,2013-04-27 17:43:00,
2013-04-27 18:48:00,46.5,39.7,30.02,SSW,205,1.0,3.0,77,0.00,,,0.01,28,WeatherCatV1.15B25,2013-04-27 17:48:00,
2013-04-27 18:53:00,46.0,38.9,30.02,SE,140,0.0,1.0,76,0.00,,,0.01,37,WeatherCatV1.15B25,2013-04-27 17:53:00,
2013-04-27 18:58:00,45.9,39.1,30.03,NW,306,0.0,0.0,77,0.00,,,0.01,51,WeatherCatV1.15B25,2013-04-27 17:58:00,
2013-04-27 19:03:00,45.9,39.1,30.03,SE,139,7.0,9.0,77,0.00,,,0.01,70,WeatherCatV1.15B25,2013-04-27 18:03:00,
2013-04-27 19:08:00,45.7,38.2,30.03,SE,128,5.0,8.0,75,0.00,,,0.01,60,WeatherCatV1.15B25,2013-04-27 18:08:00,
2013-04-27 19:13:00,45.5,38.0,30.03,SE,128,1.0,5.0,75,0.00,,,0.01,49,WeatherCatV1.15B25,2013-04-27 18:13:00,
2013-04-27 19:18:00,45.6,38.1,30.03,SE,127,0.0,1.0,75,0.00,,,0.01,53,WeatherCatV1.15B25,2013-04-27 18:18:00,
2013-04-27 19:23:00,45.7,38.2,30.03,SE,127,0.0,1.0,75,0.00,,,0.01,42,WeatherCatV1.15B25,2013-04-27 18:23:00,
2013-04-27 19:28:00,45.8,38.3,30.03,SE,126,0.0,0.0,75,0.00,,,0.01,35,WeatherCatV1.15B25,2013-04-27 18:28:00,
2013-04-27 19:33:00,45.8,38.3,30.03,SE,126,2.0,2.0,75,0.00,,,0.01,30,WeatherCatV1.15B25,2013-04-27 18:33:00,
2013-04-27 19:38:00,46.0,38.2,30.03,ESE,121,0.0,1.0,74,0.00,,,0.01,28,WeatherCatV1.15B25,2013-04-27 18:38:00,
2013-04-27 19:43:00,46.1,37.9,30.03,SE,128,1.0,2.0,73,0.00,,,0.01,23,WeatherCatV1.15B25,2013-04-27 18:43:00,
2013-04-27 19:48:00,46.2,37.3,30.04,South,187,1.0,1.0,71,0.00,,,0.01,19,WeatherCatV1.15B25,2013-04-27 18:48:00,
2013-04-27 19:53:00,46.3,36.3,30.04,ESE,112,2.0,5.0,68,0.00,,,0.01,16,WeatherCatV1.15B25,2013-04-27 18:53:00,
2013-04-27 19:58:00,46.3,35.6,30.04,SSE,149,4.0,4.0,66,0.00,,,0.01,12,WeatherCatV1.15B25,2013-04-27 18:58:00,
2013-04-27 20:03:00,46.2,35.5,30.04,SE,126,0.0,1.0,66,0.00,,,0.01,11,WeatherCatV1.15B25,2013-04-27 19:03:00,
2013-04-27 20:08:00,46.0,34.9,30.04,ESE,119,0.0,4.0,65,0.00,,,0.01,9,WeatherCatV1.15B25,2013-04-27 19:08:00,
2013-04-27 20:13:00,45.8,34.7,30.04,NNW,330,0.0,2.0,65,0.00,,,0.01,5,WeatherCatV1.15B25,2013-04-27 19:13:00,
2013-04-27 20:18:00,45.6,34.9,30.05,NNW,330,0.0,1.0,66,0.00,,,0.01,0,WeatherCatV1.15B25,2013-04-27 19:18:00,
2013-04-27 20:23:00,45.4,35.1,30.05,SW,236,0.0,3.0,67,0.00,,,0.01,0,WeatherCatV1.15B25,2013-04-27 19:23:00,
2013-04-27 20:28:00,45.2,35.3,30.05,SW,232,0.0,0.0,68,0.00,,,0.01,0,WeatherCatV1.15B25,2013-04-27 19:28:00,
2013-04-27 20:33:00,45.0,35.1,30.06,NNW,331,0.0,1.0,68,0.00,,,0.01,0,WeatherCatV1.15B25,2013-04-27 19:33:00,
2013-04-27 20:38:00,44.8,35.3,30.06,ESE,102,0.0,1.0,69,0.00,,,0.01,0,WeatherCatV1.15B25,2013-04-27 19:38:00,
2013-04-27 20:43:00,44.7,35.5,30.06,SSW,196,0.0,2.0,70,0.00,,,0.01,0,WeatherCatV1.15B25,2013-04-27 19:43:00,
2013-04-27 20:48:00,44.5,35.7,30.07,SSW,196,0.0,1.0,71,0.00,,,0.01,0,WeatherCatV1.15B25,2013-04-27 19:48:00,
2013-04-27 20:53:00,44.3,35.9,30.07,SSW,196,0.0,0.0,72,0.00,,,0.01,0,WeatherCatV1.15B25,2013-04-27 19:53:00,
2013-04-27 20:58:00,44.2,36.1,30.07,SSW,196,0.0,1.0,73,0.00,,,0.01,0,WeatherCatV1.15B25,2013-04-27 19:58:00,
2013-04-27 21:03:00,44.1,36.4,30.07,NW,305,1.0,1.0,74,0.00,,,0.01,0,WeatherCatV1.15B25,2013-04-27 20:03:00,
2013-04-27 21:08:00,44.0,36.3,30.07,ESE,104,0.0,1.0,74,0.00,,,0.01,0,WeatherCatV1.15B25,2013-04-27 20:08:00,
2013-04-27 21:13:00,43.8,36.4,30.07,NW,323,0.0,1.0,75,0.00,,,0.01,0,WeatherCatV1.15B25,2013-04-27 20:13:00,
2013-04-27 21:18:00,43.6,36.5,30.07,NW,325,0.0,0.0,76,0.00,,,0.01,0,WeatherCatV1.15B25,2013-04-27 20:18:00,
2013-04-27 21:23:00,43.4,36.7,30.07,NW,313,1.0,1.0,77,0.00,,,0.01,0,WeatherCatV1.15B25,2013-04-27 20:23:00,
2013-04-27 21:28:00,43.2,36.8,30.08,NW,313,0.0,1.0,78,0.00,,,0.01,0,WeatherCatV1.15B25,2013-04-27 20:28:00,
2013-04-27 21:33:00,43.1,37.0,30.08,NNW,327,0.0,0.0,79,0.00,,,0.01,0,WeatherCatV1.15B25,2013-04-27 20:33:00,
2013-04-27 21:38:00,42.9,36.8,30.08,NNW,327,0.0,1.0,79,0.00,,,0.01,0,WeatherCatV1.15B25,2013-04-27 20:38:00,
2013-04-27 21:43:00,42.8,37.1,30.08,ESE,107,0.0,1.0,80,0.00,,,0.01,0,WeatherCatV1.15B25,2013-04-27 20:43:00,
2013-04-27 21:48:00,42.7,37.0,30.08,ESE,107,0.0,0.0,80,0.00,,,0.01,0,WeatherCatV1.15B25,2013-04-27 20:48:00,
2013-04-27 21:53:00,42.6,37.2,30.08,SE,131,0.0,1.0,81,0.00,,,0.01,0,WeatherCatV1.15B25,2013-04-27 20:53:00,
2013-04-27 21:58:00,42.4,37.3,30.08,SE,131,0.0,2.0,82,0.00,,,0.01,0,WeatherCatV1.15B25,2013-04-27 20:58:00,
2013-04-27 22:03:00,42.3,37.2,30.08,SE,130,0.0,1.0,82,0.00,,,0.01,0,WeatherCatV1.15B25,2013-04-27 21:03:00,
2013-04-27 22:08:00,42.2,37.4,30.09,SE,131,1.0,1.0,83,0.00,,,0.01,0,WeatherCatV1.15B25,2013-04-27 21:08:00,
2013-04-27 22:13:00,42.1,37.3,30.08,SE,130,0.0,0.0,83,0.00,,,0.01,0,WeatherCatV1.15B25,2013-04-27 21:13:00,
2013-04-27 22:18:00,42.0,37.2,30.08,SE,130,0.0,0.0,83,0.00,,,0.01,0,WeatherCatV1.15B25,2013-04-27 21:18:00,
2013-04-27 22:23:00,41.9,37.1,30.09,SE,130,0.0,0.0,83,0.00,,,0.01,0,WeatherCatV1.15B25,2013-04-27 21:23:00,
2013-04-27 22:28:00,41.7,37.2,30.09,ESE,120,0.0,1.0,84,0.00,,,0.01,0,WeatherCatV1.15B25,2013-04-27 21:28:00,
2013-04-27 22:33:00,41.6,37.1,30.09,SE,126,0.0,2.0,84,0.00,,,0.01,0,WeatherCatV1.15B25,2013-04-27 21:33:00,
2013-04-27 22:38:00,41.5,37.0,30.09,SE,126,0.0,0.0,84,0.00,,,0.01,0,WeatherCatV1.15B25,2013-04-27 21:38:00,
2013-04-27 22:43:00,41.3,36.8,30.09,SE,127,0.0,1.0,84,0.00,,,0.01,0,WeatherCatV1.15B25,2013-04-27 21:43:00,
2013-04-27 22:48:00,41.2,36.7,30.09,SE,126,1.0,1.0,84,0.00,,,0.01,0,WeatherCatV1.15B25,2013-04-27 21:48:00,
2013-04-27 22:53:00,41.0,36.5,30.09,ENE,70,0.0,0.0,84,0.00,,,0.01,0,WeatherCatV1.15B25,2013-04-27 21:53:00,
2013-04-27 22:58:00,40.9,36.4,30.09,ENE,70,0.0,0.0,84,0.00,,,0.01,0,WeatherCatV1.15B25,2013-04-27 21:58:00,
2013-04-27 23:03:00,40.8,36.6,30.10,ENE,70,0.0,0.0,85,0.00,,,0.01,0,WeatherCatV1.15B25,2013-04-27 22:03:00,
2013-04-27 23:08:00,40.6,36.5,30.10,ENE,70,0.0,0.0,85,0.00,,,0.01,0,WeatherCatV1.15B25,2013-04-27 22:08:00,
2013-04-27 23:13:00,40.4,36.3,30.10,ENE,70,0.0,0.0,85,0.00,,,0.01,0,WeatherCatV1.15B25,2013-04-27 22:13:00,
2013-04-27 23:18:00,40.2,36.1,30.10,ENE,70,0.0,0.0,85,0.00,,,0.01,0,WeatherCatV1.15B25,2013-04-27 22:18:00,
2013-04-27 23:23:00,40.1,36.0,30.10,ENE,70,0.0,0.0,85,0.00,,,0.01,0,WeatherCatV1.15B25,2013-04-27 22:23:00,
2013-04-27 23:28:00,40.0,35.9,30.10,ENE,70,0.0,0.0,85,0.00,,,0.01,0,WeatherCatV1.15B25,2013-04-27 22:28:00,
2013-04-27 23:33:00,39.9,36.1,30.10,ENE,70,0.0,0.0,86,0.00,,,0.01,0,WeatherCatV1.15B25,2013-04-27 22:33:00,
2013-04-27 23:38:00,39.8,36.0,30.10,ENE,70,0.0,0.0,86,0.00,,,0.01,0,WeatherCatV1.15B25,2013-04-27 22:38:00,
2013-04-27 23:43:00,39.7,35.9,30.10,ENE,70,0.0,0.0,86,0.00,,,0.01,0,WeatherCatV1.15B25,2013-04-27 22:43:00,
2013-04-27 23:48:00,39.6,35.8,30.10,ENE,70,0.0,0.0,86,0.00,,,0.01,0,WeatherCatV1.15B25,2013-04-27 22:48:00,
2013-04-27 23:53:00,39.5,35.7,30.10,ENE,70,0.0,0.0,86,0.00,,,0.01,0,WeatherCatV1.15B25,2013-04-27 22:53:00,
2013-04-27 23:58:00,39.3,35.5,30.10,ENE,70,0.0,0.0,86,0.00,,,0.01,0,WeatherCatV1.15B25,2013-04-27 22:58:00,